Regional Weather Roundup
Issued by NWS Grand Forks, ND

Home | Current Version | Previous Version | Graphics & Text | Print | Product List | Glossary On
Versions: 1 2 3 4 5 6 7 8 9 10 11 12 13 14 15 16 17 18 19 20 21 22 23 24 25 26 27 28 29 30 31 32 33 34 35 36 37 38 39 40 41 42 43 44 45 46 47 48 49 50
000
ASUS43 KFGF 242331
RWRFGF
PRAIRIE TO PINES  WEATHER ROUNDUP
NATIONAL WEATHER SERVICE EASTERN NORTH DAKOTA/GRAND FORKS ND
600 PM CDT THU APR 24 2014

 **SATELLITE DATA USED TO AUGMENT SKY COVER AT AUTOMATED STATIONS**
 *****  WEATHER ACROSS EASTERN NORTH DAKOTA  *****

CITY           SKY/WX    TMP DP  RH WIND       PRES   REMARKS
GRAND FORKS    CLOUDY    44  41  89 E9        29.69S
GRAND FRKS AFB CLOUDY    44  44  99 E7        29.70R
GRAND FRKS NWS   N/A     41 N/A N/A SE3         N/A
DEVILS LAKE    PTSUNNY   52  43  71 N15       29.67R
FARGO          PTSUNNY   51  44  77 E9        29.67S
WAHPETON ARPT  MOCLDY    46  41  81 SE9       29.68F
$$

 ***** WEATHER ACROSS CENTRAL AND WESTERN NORTH DAKOTA  *****

CITY           SKY/WX    TMP DP  RH WIND       PRES   REMARKS
BISMARCK       MOSUNNY   61  25  25 NW17G25   29.69R
MINOT          MOSUNNY   57  37  47 N12G21    29.68R
JAMESTOWN      CLOUDY    56  30  37 W10       29.65R
MINOT AFB      MOSUNNY   56  38  51 N15       29.67S
GARRISON         N/A     59  29  31 NW18      29.69R
WILLISTON      PTSUNNY   60  26  27 W12       29.70F
DICKINSON      MOSUNNY   59  21  23 NW22G30   29.70S
HETTINGER      MOSUNNY   61  17  18 W18       29.73S
$$

 *****  OTHER AIRPORT OBSERVATIONS IN OUR AREA  *****

CITY           SKY/WX    TMP DP  RH WIND       PRES   REMARKS
WALHALLA         N/A     41  41 100 NE3       29.73S FOG
GRAFTON AIRPOR CLOUDY    41  41 100 E9        29.72R FOG
VALLEY CITY AR FAIR      48  39  71 S7        29.65F THUNDER
CANDO          FAIR      48  41  76 NE13G21   29.68R
CAVALIER APRT  CLOUDY    41  39  93 E6        29.73R FOG
GWINNER        CLEAR     57  37  47 N20G29    29.67S
ROLLA          FAIR      50  39  66 NW14      29.68S
 ***** THE ABOVE OBSERVATIONS ARE NON NWS ARE NOT QUALITY
       CONTROLLED AND MAY MIS-REPORT RAIN FOR SNOW...
$$

  *****  WEATHER ACROSS NORTHERN MINNESOTA  *****

CITY           SKY/WX    TMP DP  RH WIND       PRES   REMARKS
FLAG ISLAND    LGT SNOW  34  32  93 E7        29.77R VSB 1
WARROAD        LGT SNOW  34  28  80 E5        29.76S VSB 3/4
ROSEAU         LGT SNOW  34  28  80 E3        29.75S VSB 3/4
HALLOCK        CLOUDY    39  37  93 E9        29.73R
THF RVR FALLS  CLOUDY    34  30  86 E6        29.73S
BAUDETTE       SNOW      32  32 100 E5        29.76R VSB 1/2
WASKISH        LGT SNOW  34  32  93 CALM      29.74S VSB 1
CROOKSTON      CLOUDY    39  39 100 SE7       29.71S
$$
  *****  WEATHER ACROSS CENTRAL AND WEST MINNESOTA  *****

CITY           SKY/WX    TMP DP  RH WIND       PRES   REMARKS
FOSSTON        CLOUDY    34  34 100 CALM      29.71S
BEMIDJI        LGT SNOW  32  32 100 E3        29.71F VSB 3/4
PARK RAPIDS    CLOUDY    33  33 100 CALM      29.70S
ELBOW LAKE     CLOUDY    48  42  77 W7        29.70R
WADENA         CLOUDY    37  36  93 CALM      29.70R
DETROIT LAKES  CLOUDY    37  37 100 S5        29.71R THUNDER
MOORHEAD       MOSUNNY   52  46  82 SE5       29.68F
FERGUS FALLS   PTSUNNY   48  39  71 W5        29.68R
MORRIS MN      MOSUNNY   54  45  71 W9        29.71R
STAPLES        CLOUDY    36  36 100 CALM      29.70S
$$
  *****  WEATHER ELSEWHERE ACROSS MINNESOTA  *****

CITY           SKY/WX    TMP DP  RH WIND       PRES   REMARKS
DULUTH         LGT SNOW  33  30  88 E20       29.71S VSB 1   WCI  21
INTRNTL FALLS  LGT SNOW  33  32  96 E12       29.75F VSB 3/4 WCI  24
ELY            LGT SNOW  34  32  93 E12       29.76F
CLOQUET        LGT SNOW  34  32  93 E8G17     29.71S
WHEATON        PTSUNNY   50  46  87 E7        29.70F
BRAINERD       CLOUDY    39  33  79 E3        29.69F
HIBBING        LGT SNOW  34  32  92 E10       29.71F FOG
ALEXANDRIA     CLOUDY    47  40  76 NW7       29.70R
SAINT CLOUD    CLOUDY    44  38  79 W7        29.69S
MINNEAPOLIS    CLOUDY    45  42  89 W10       29.69S
$$

  *****  WEATHER ACROSS SOUTH DAKOTA  *****

CITY           SKY/WX    TMP DP  RH WIND       PRES   REMARKS
SIOUX FALLS    PTSUNNY   63  41  44 VRB5      29.69S
BROOKINGS      NOT AVBL
WATERTOWN      PTSUNNY   56  42  59 NE13G22   29.67R
HURON          MOSUNNY   66  19  16 W23G36    29.69F
SISSETON         N/A     53  44  71 E12G17    29.67F
ABERDEEN       MOSUNNY   64  21  19 W16G29    29.67S
MITCHELL       MOSUNNY   69  24  18 NW24G32   29.70F
PIERRE         SUNNY     65  22  19 NW21G29   29.72F
MOBRIDGE       MOSUNNY   64  19  17 NW18      29.68S
RAPID CITY     MOSUNNY   63  27  25 NE10      29.76S
$$

  *****  SOME WEATHER IN NEARBY STATES *****

CITY           SKY/WX    TMP DP  RH WIND       PRES   REMARKS
GLASGOW MT     MOSUNNY   62  19  19 NW10G21   29.68F
GREAT FALLS MT CLOUDY    53  36  52 NW8       29.72R
CHEYENNE WY    PTSUNNY   58  17  20 W20G25    29.88S
SCOTTSBLUFF NE MOSUNNY   65  20  17 W7        29.81F
OMAHA NE       CLOUDY    63  42  46 N15       29.74R
DES MOINES IA  CLOUDY    53  46  77 N10       29.69R
DAVENPORT IA   LGT RAIN  57  51  80 S5        29.66F
CHICAGO IL     CLOUDY    62  29  28 SE20      29.72F
EAU CLAIRE WI  CLOUDY    44  43  96 S3        29.67S FOG
LA CROSSE WI   LGT RAIN  46  45  96 CALM      29.67R VSB 3/4
$$

  *****  SOME NATIONAL WEATHER *****

CITY           SKY/WX    TMP DP  RH WIND       PRES   REMARKS
LA GUARDIA NY  PTCLDY    58  15  18 NW18G32   29.90R
RALEIGH NC     PTSUNNY   68  39  34 SW5       30.01S
ATLANTA GA     PTSUNNY   79  48  33 S8        29.91F
NEW ORLEANS LA PTSUNNY   78  63  59 S15       29.87S
OKLAHOMA CITY  MOSUNNY   73  33  23 N21G28    29.87R
ALBUQUERQUE NM MOSUNNY   69   8   9 SE10      30.01F
SALT LAKE CITY CLOUDY    65  22  19 N10       29.93F
LOS ANGELES CA MOSUNNY   69  52  54 W16       29.92F
BOISE ID       CLOUDY    60  40  47 E6        29.85F
SEATTLE WA     PTSUNNY   53  43  68 SW13G22   29.87R
$$

*** WEATHER ACROSS MANITOBA...SASKATCHEWAN AND ONTARIO ***
                ***ONTARIO***

CITY           SKY/WX    TMP DP  RH WIND       PRES   REMARKS
GERALDTON      CLOUDY    50  19  29 SE8       29.98F
THUNDER BAY    LGT SNOW  34  32  93 E10       29.97S VSB 1
SIOUX LOOKOUT  LGT RAIN  43  25  49 SE17G28   29.87S
TORONTO        PTSUNNY   50  18  27 E2        30.05F
BIG TROUT LK     N/A     34  21  60 E13G21    30.14S WCI  25
PICKLE LAKE    CLOUDY    50  23  34 SE12      29.93R
DRYDEN         CLOUDY    39  28  65 SE14      29.83S
KENORA         LGT RAIN  36  34  93 E10G20    29.79S
$$
                *** MANITOBA***

CITY           SKY/WX    TMP DP  RH WIND       PRES   REMARKS
BRANDON        PTSUNNY   48  43  81 E12       29.69S
DAUPHIN        LGT RAIN  37  37 100 E10G17    29.74R FOG
ISLAND LAKE    PTSUNNY   41  30  65 E15G21    30.01S
PILOT MOUND      N/A     45  41  87 SW6         N/A
THE PAS        CLOUDY    36  25  64 E16G23    29.90S
THOMPSON       PTSUNNY   32  19  59 E20       30.12S WCI  20
WINNIPEG       FLURRIES  36  34  93 SE12      29.77S
LYNN LAKE      MOSUNNY   30  18  59 E16G25    30.11S WCI  19
CHURCHILL      FLURRIES  18  12  79 E10       30.42S WCI   6
GILLAM         PTSUNNY   27  18  69 E7        30.26S WCI  19
$$
                ***SASKATCHEWAN***

CITY           SKY/WX    TMP DP  RH WIND       PRES   REMARKS
ESTEVAN        PTSUNNY   55  30  38 NW12      29.67F
KINDERSLEY     MOSUNNY   46  34  61 NW16      29.68
LLOYDMINSTER   LGT RAIN  37  34  87 NE9       29.72
PRINCE ALBERT  LGT SNOW  32  30  93 E20G25    29.75R FOG     WCI  20
REGINA         PTSUNNY   50  36  57 NW17      29.66S
YORKTON        CLOUDY    41  39  93 E3        29.69R FOG
N. BATTLEFORD  CLOUDY    36  32  87 NE15      29.74R
LA RONGE       CLOUDY    37  25  60 NE20G26   29.90R
SASKATOON      CLOUDY    37  36  93 N14       29.67R
SWIFT CURRENT  MOSUNNY   54  23  30 NW20G25   29.64S
$$
NOTE: THESE ARE AUTOMATED STATIONS WITH LIMITED QUALITY CONTROL
      "FAIR" INDICATES FEW OR NO CLOUDS BELOW 12,000 FEET WITH NO
      SIGNIFICANT WEATHER AND/OR OBSTRUCTIONS TO VISIBILITY.
      SKY/WX - SKY CONDITION AND SIGNIFICANT WEATHER.
      TMP - AIR TEMPERATURE.    DP   - DEWPOINT TEMPERATURE.
      RH  - RELATIVE HUMIDITY.  PRES - PRESSURE.
      HX  - HEAT INDEX.         WCI  - WIND CHILL INDEX.
$



USA.gov is the U.S. government's official web portal to all federal, state and local government web resources and services.